This demonstration page uses our WeatherBlox Daily Observations layout. Learn more.

Left ArrowRight Arrow

34.16533, -84.80231

Hourly Observations for November 5, 2020

Temp ( °F °C ) Dew Point ( °F °C ) Humidity (%) Winds ( mph kmh ) Pressure ( in mb ) Visibility ( mi km ) Precip ( " mm )
12:53 am 00:53 Clear 44 6.7 41 5 89 89 Calm 30.38 1029 10 16 0.00 0.00
1:53 am 01:53 Clear 46 7.8 41 5 83 83 SE 3 6 30.37 1028 10 16 0.00 0.00
2:53 am 02:53 Clear 45 7.2 40 4.4 83 83 Calm 30.37 1029 10 16 0.00 0.00
3:53 am 03:53 Clear 49 9.4 42 5.6 77 77 ESE 3 6 30.37 1028 10 16 0.00 0.00
4:53 am 04:53 Clear 48 8.9 41 5 77 77 VRB 3 6 30.37 1029 10 16 0.00 0.00
5:53 am 05:53 Clear 48 8.9 41 5 77 77 E 3 6 30.39 1029 10 16 0.00 0.00
6:53 am 06:53 Clear 47 8.3 40 4.4 77 77 Calm 30.40 1030 10 16 0.00 0.00
7:53 am 07:53 Sunny 49 9.4 41 5 74 74 VRB 3 6 30.42 1030 10 16 0.00 0.00
8:53 am 08:53 Sunny 54 12.2 43 6.1 67 67 E 5 7 30.43 1030 10 16 0.00 0.00
9:53 am 09:53 Sunny 59 15 45 7.2 60 60 ENE 6 9 30.42 1030 10 16 0.00 0.00
10:53 am 10:53 Sunny 65 18.3 48 8.9 54 54 VRB 5 7 30.41 1030 10 16 0.00 0.00
11:53 am 11:53 Sunny 68 20 50 10 53 53 NE 7 11 30.38 1029 10 16 0.00 0.00
12:53 pm 12:53 Sunny 70 21.1 50 10 49 49 VRB 5 7 30.35 1028 10 16 0.00 0.00
1:53 pm 13:53 Sunny 69 20.6 49 9.4 49 49 ENE 5 7 30.32 1027 10 16 0.00 0.00
2:53 pm 14:53 Sunny 70 21.1 47 8.3 44 44 ENE 3 6 30.31 1026 10 16 0.00 0.00
3:53 pm 15:53 Sunny 69 20.6 48 8.9 47 47 ENE 3 6 30.30 1026 10 16 0.00 0.00
4:53 pm 16:53 Sunny 67 19.4 50 10 55 55 Calm 30.29 1026 10 16 0.00 0.00
5:53 pm 17:53 Clear 59 15 53 11.7 81 81 Calm 30.29 1026 10 16 0.00 0.00
6:53 pm 18:53 Clear 55 12.8 50 10 83 83 Calm 30.31 1026 10 16 0.00 0.00
7:53 pm 19:53 Clear 53 11.7 50 10 89 89 Calm 30.30 1026 10 16 0.00 0.00
8:53 pm 20:53 Clear 52 11.1 49 9.4 89 89 Calm 30.30 1026 10 16 0.00 0.00
9:53 pm 21:53 Clear 49 9.4 46 7.8 90 90 Calm 30.31 1026 10 16 0.00 0.00
10:53 pm 22:53 Clear 49 9.4 46 7.8 90 90 Calm 30.31 1026 10 16 0.00 0.00
11:53 pm 23:53 Clear 49 9.4 46 7.8 90 90 Calm 30.30 1026 10 16 0.00 0.00

Powered by AerisWeather